Temperature
20 19 18 17 16 16 16 16 16 16 16 16 16 16 16 16 15 15 15 15 15 15 14 14 14 14 14 14 14 14 13 13 13 13 13 12 12 12 12 12 12 12 12
21 19 18 17 16 16 16 16 16 16 16 16 16 16 15 15 15 15 15 14 14 14 14 13 13 13 13 13 13 13 13 13 13 13 12 12 12 12 12 12 12 12 12
20 19 17 17 16 16 16 16 16 16 16 16 15 15 15 15 14 14 14 14 13 13 13 13 12 12 12 13 13 13 13 13 13 12 12 12 12 11 12 12 11 11 11
20 18 17 16 16 16 15 15 15 15 15 15 15 15 14 14 14 13 13 13 13 13 13 12 12 12 12 12 12 13 13 13 12 12 12 11 11 11 11 11 11 11 11
19 18 16 16 16 15 15 15 15 15 15 15 15 14 14 14 13 13 13 13 13 13 12 12 12 12 12 12 12 13 13 12 12 12 11 11 11 11 11 11 11 11 11
19 17 16 16 16 15 15 15 15 15 15 14 14 14 14 13 13 13 12 12 13 12 12 12 12 12 12 12 12 12 12 12 12 11 11 11 11 10 10 10 11 11 10
18 17 16 16 15 15 15 15 15 15 14 14 13 13 13 13 12 12 12 12 12 12 12 12 12 12 12 11 12 12 12 12 11 11 11 11 10 10 10 10 10 10 10
17 16 16 15 15 15 15 15 14 14 14 13 13 13 13 12 12 12 12 12 12 12 12 12 12 11 11 11 12 12 11 11 11 11 10 10 10 10 10 10 10 10 10
16 16 15 15 15 15 15 14 14 14 13 13 13 12 12 12 12 11 12 12 12 12 12 12 11 11 11 11 11 11 11 11 11 10 10 10 10 10 10 10 10 10 10
15 15 15 15 15 14 14 14 14 13 13 13 12 12 12 12 11 11 11 11 11 11 11 11 11 11 11 11 11 11 11 11 10 10 10 10 10 9 9 9 10 9 9
14 14 14 14 14 14 14 14 14 13 13 12 12 12 12 11 11 11 11 11 11 11 11 11 11 11 11 11 11 11 10 10 10 10 10 10 9 9 9 9 9 9 9
14 14 14 14 14 14 14 14 13 13 12 12 12 12 12 11 11 11 11 11 11 11 11 11 11 11 11 11 11 10 10 10 10 10 10 9 9 9 9 9 9 9 9
15 14 14 14 14 14 14 13 13 13 12 12 12 12 11 11 11 11 11 11 11 11 11 11 11 11 11 11 11 10 10 10 10 10 10 9 9 9 9 9 9 9 9
14 14 14 14 14 14 14 13 13 13 12 12 12 11 11 11 11 11 11 11 11 11 11 11 11 11 11 10 10 10 10 10 10 10 10 9 9 9 9 9 8 8 8
14 14 14 14 14 14 13 13 13 13 12 12 12 11 11 11 11 11 11 11 11 11 11 11 11 11 10 10 10 10 10 10 10 10 10 9 9 9 8 8 8 8 8
14 14 14 13 13 13 13 13 13 13 12 12 12 11 11 11 11 11 11 11 11 10 10 11 10 10 10 10 10 10 10 10 9 9 9 9 9 9 9 8 8 8 8
14 14 14 13 13 13 13 13 13 13 12 12 12 11 11 11 11 11 11 11 10 10 10 10 10 10 10 10 10 10 9 9 9 9 9 9 9 9 9 9 8 8 8
14 14 13 13 13 13 13 13 13 12 12 12 12 11 11 11 11 11 11 10 10 10 10 10 10 10 10 10 10 9 9 9 9 9 9 9 9 9 9 9 9 8 8
14 14 13 13 13 13 13 13 12 12 12 12 12 12 11 11 11 11 11 10 10 10 10 10 10 10 10 9 9 9 9 9 9 9 9 9 9 9 9 9 9 9 8
14 14 14 13 13 13 13 12 12 12 12 12 12 12 11 11 11 11 10 10 10 10 10 10 9 9 9 9 9 9 9 9 9 9 9 9 9 9 9 9 9 9 8
14 14 13 13 13 13 12 12 12 12 12 12 12 12 12 11 11 11 10 10 10 10 10 10 9 9 9 9 9 9 9 9 9 9 9 9 9 9 9 9 9 8 8
14 14 14 13 13 13 13 13 13 12 12 12 12 12 12 11 11 11 10 10 10 10 10 9 9 9 9 9 9 9 9 9 10 10 10 9 9 9 9 9 9 8 8
14 14 14 14 13 13 13 13 12 12 12 12 12 12 12 12 11 11 11 10 10 10 10 10 10 9 9 9 9 9 9 10 10 10 10 10 10 9 9 9 9 8 8
14 14 14 14 14 13 13 13 12 12 12 13 13 13 12 12 11 11 11 11 10 10 10 10 10 9 9 9 9 9 9 9 9 10 10 10 10 9 9 9 9 8 8
14 14 14 14 14 13 13 13 13 13 13 13 13 12 12 12 12 11 11 11 11 10 10 10 10 10 9 9 9 9 9 9 9 9 9 10 10 9 9 9 9 8 8
14 14 14 14 14 14 13 13 13 13 13 13 13 13 12 12 12 12 11 11 11 11 10 10 10 10 10 9 9 9 9 9 9 9 9 9 9 9 9 9 9 8 8
Wind_Speed
9 13 25 26 25 24 23 22 21 21 20 20 19 19 19 19 18 18 18 17 17 17 17 17 18 18 19 19 19 18 18 18 17 17 16 15 15 15 15 15 14 14 15
13 18 26 26 26 25 24 23 22 21 20 20 19 19 19 19 18 18 18 18 17 17 17 17 18 18 18 18 18 18 18 17 17 16 15 14 14 15 15 15 15 14 16
15 19 24 27 26 25 24 23 22 21 21 20 19 19 19 18 18 18 18 18 17 17 17 17 17 17 17 17 17 17 17 17 16 16 14 13 12 14 15 15 15 16 17
16 17 21 26 26 25 24 23 23 22 21 20 20 19 19 18 18 18 18 18 18 17 17 17 17 17 16 16 17 17 16 16 15 14 13 12 10 13 15 15 16 16 17
15 15 21 27 26 25 25 24 23 22 21 21 20 20 19 19 18 18 18 18 18 17 17 17 17 16 16 16 16 16 15 15 14 13 12 12 11 13 15 15 16 16 16
14 14 21 26 26 26 25 24 23 22 22 21 20 20 19 19 18 18 18 18 17 17 17 16 16 15 15 15 16 15 15 14 13 12 11 11 10 13 14 15 15 16 16
14 13 20 26 26 26 25 24 23 23 22 21 20 20 19 19 18 18 18 17 17 16 16 16 15 15 14 15 15 14 14 13 12 11 10 9 10 13 14 15 15 15 15
14 12 18 26 26 26 25 24 23 22 22 21 20 20 20 19 19 18 17 17 16 16 15 15 15 15 14 15 15 14 12 11 11 10 9 9 11 13 13 14 13 14 14
11 11 12 18 22 25 25 24 23 23 22 21 21 20 20 19 19 18 17 17 16 15 15 15 15 14 14 14 14 13 12 11 11 9 8 8 11 12 13 13 12 13 14
10 10 10 12 16 19 21 23 23 22 22 22 21 20 20 19 19 18 17 16 16 15 15 14 14 13 13 13 13 12 12 11 10 9 7 8 10 11 12 12 12 13 14
12 10 10 11 12 15 17 21 22 22 21 21 20 20 19 16 16 15 15 15 15 15 14 14 13 13 12 12 12 12 11 9 8 7 6 7 9 10 11 11 12 12 12
18 15 12 12 13 13 14 16 16 17 18 17 17 18 15 15 14 14 15 15 15 14 14 13 13 13 12 11 10 10 9 8 7 6 5 6 8 9 10 10 10 11 11
18 16 14 14 13 13 10 11 10 12 13 14 16 17 15 14 13 12 11 12 12 12 10 11 12 11 10 9 8 8 8 7 6 5 5 6 7 8 9 9 9 9 9
16 17 15 14 13 13 11 9 9 9 9 10 14 17 14 9 8 8 7 9 9 9 9 10 9 9 9 8 8 7 6 6 5 5 5 6 6 7 7 7 7 7 8
17 17 16 15 15 13 12 10 9 9 10 12 14 16 16 9 7 7 7 8 9 9 9 8 7 7 6 6 6 7 5 5 4 4 5 6 5 5 5 5 6 6 6
18 18 16 16 16 14 12 10 10 10 11 13 13 15 17 14 10 8 7 6 7 9 9 8 7 6 5 5 4 5 5 4 4 4 4 4 4 4 4 4 4 4 4
18 18 18 17 16 16 13 12 10 10 12 11 12 16 17 16 13 10 7 6 7 10 9 8 7 6 4 3 3 3 3 3 3 3 2 2 3 3 3 2 2 2 3
16 17 18 17 17 17 14 12 10 11 11 11 13 15 17 17 16 11 7 6 9 10 8 5 4 4 3 3 2 1 2 2 2 2 2 2 2 1 2 2 1 2 2
17 17 18 17 18 17 15 12 11 10 10 11 13 14 16 17 18 13 8 8 11 8 5 5 3 3 3 3 2 2 1 1 1 2 2 2 2 1 0 1 1 2 3
15 16 17 17 17 16 13 11 10 10 10 10 11 13 16 16 17 14 9 10 11 6 5 5 4 3 3 4 3 2 1 1 0 2 2 2 3 3 2 1 1 2 3
14 16 17 18 17 15 14 14 14 13 12 11 10 14 17 17 17 14 9 9 9 8 8 7 5 4 3 3 3 2 2 1 1 2 2 2 3 4 3 3 3 3 3
15 17 18 19 18 18 15 14 12 11 9 10 9 12 16 17 17 15 11 10 9 8 8 8 6 4 3 3 4 2 1 3 2 1 2 3 3 3 3 4 4 4 4
15 18 18 20 19 19 16 11 10 8 8 9 11 12 13 17 17 15 14 11 10 10 10 9 9 8 5 3 2 4 3 3 2 2 2 2 2 2 3 4 4 5 4
16 16 18 19 19 19 18 16 17 15 13 13 12 12 12 15 16 16 15 13 12 10 10 10 9 6 7 5 2 1 2 3 2 2 3 2 2 3 3 3 4 5 5
14 14 15 18 20 20 20 19 19 16 13 9 10 12 13 13 14 15 15 13 12 11 11 11 10 8 7 6 5 3 2 1 2 2 3 3 2 2 3 3 4 5 6
12 12 13 16 19 20 21 20 20 19 15 14 14 15 14 11 12 15 15 14 13 11 12 12 11 11 9 7 6 5 4 4 4 4 4 3 3 3 2 2 3 5 6
Wind_Direction
184 172 173 165 160 158 155 151 147 143 140 137 134 132 129 126 124 121 119 116 112 110 108 107 105 102 99 97 95 92 89 84 81 79 76 77 79 79 76 73 69 64 66
161 168 170 165 161 159 157 153 148 145 142 139 137 135 132 130 128 125 121 118 116 114 112 110 108 105 102 100 98 95 91 86 81 76 71 69 76 78 75 73 73 70 67
157 166 167 164 162 160 158 154 150 147 145 143 140 138 136 134 131 128 125 121 118 116 114 113 111 106 103 102 100 97 93 87 81 74 64 54 66 77 73 71 70 68 66
158 163 165 164 163 162 160 156 152 151 149 146 144 142 140 137 134 132 128 123 120 117 116 115 112 108 105 103 102 98 94 89 82 71 56 49 59 76 73 71 69 68 65
159 162 165 164 164 163 160 157 155 153 150 148 146 145 143 140 137 134 129 124 121 119 118 116 114 111 108 106 104 100 96 90 80 67 54 48 57 76 75 72 68 68 67
160 161 166 165 165 163 161 159 157 155 152 150 149 147 146 143 140 134 129 126 124 123 121 119 117 114 112 110 106 103 98 90 78 66 55 51 59 76 77 73 70 68 66
161 163 167 166 165 164 162 160 159 156 154 153 151 150 147 144 140 136 133 130 127 126 125 124 122 118 115 113 109 106 101 91 79 67 57 55 69 78 75 72 69 67 65
161 163 168 168 166 164 162 161 161 159 157 156 154 152 148 145 142 140 138 134 132 130 129 128 126 123 118 115 112 108 103 91 79 67 60 63 78 79 75 72 70 68 67
161 164 166 168 166 164 162 162 162 161 159 158 157 154 151 148 146 144 140 138 136 133 131 130 128 124 122 119 116 111 103 91 78 65 60 67 81 79 77 73 71 71 68
167 168 167 164 163 162 162 163 162 162 160 159 158 153 149 149 147 145 143 143 140 137 135 132 129 125 123 121 118 112 103 89 77 66 60 73 82 81 76 73 73 72 68
177 176 171 165 161 159 160 164 163 162 161 159 156 150 146 144 142 143 145 147 145 142 138 135 131 124 119 118 118 111 100 90 80 65 60 79 85 84 80 78 75 72 69
185 183 177 169 164 160 163 163 162 161 160 155 153 147 142 139 138 142 148 148 146 143 139 136 129 117 107 105 110 108 102 93 79 61 60 79 89 89 84 79 75 73 69
186 184 181 173 166 163 161 159 157 155 154 150 149 145 141 137 137 140 143 143 138 135 126 120 107 105 108 108 111 111 108 99 82 63 57 71 92 91 86 81 77 74 70
188 187 181 174 169 166 161 160 156 153 153 153 153 150 146 140 137 140 136 135 132 128 117 112 110 111 111 116 123 120 113 107 92 70 58 64 85 90 88 83 80 76 71
193 190 184 175 172 168 163 164 163 159 158 157 157 157 153 149 147 145 142 139 137 135 128 121 119 117 114 113 122 127 121 115 102 82 62 58 71 87 91 85 81 77 71
197 192 186 181 176 170 170 168 166 163 160 159 162 163 160 157 155 152 146 145 147 146 141 136 133 127 121 118 115 128 132 128 118 101 78 62 63 73 83 86 77 74 69
198 193 189 185 179 176 173 171 168 166 163 165 167 167 165 163 162 159 154 155 158 153 142 131 123 118 114 111 108 120 131 139 138 130 110 85 73 61 52 66 59 59 54
197 194 191 188 183 181 177 174 170 169 168 170 170 171 170 169 167 163 161 165 163 155 146 136 129 118 118 119 118 110 115 137 152 163 155 140 113 74 31 14 3 1 356
197 194 191 189 185 184 179 176 171 171 172 173 173 174 176 174 172 169 169 168 162 155 150 150 136 135 141 137 126 96 78 142 174 177 182 194 197 203 255 349 6 342 327
196 193 192 189 186 183 178 175 172 174 177 176 177 180 178 178 176 173 171 167 163 157 158 152 142 128 136 139 112 73 21 320 209 205 211 218 226 230 230 227 267 321 321
193 192 193 191 187 183 184 184 184 187 184 183 183 181 180 180 178 176 174 168 169 173 172 158 141 137 131 130 103 42 350 326 257 243 227 224 237 239 236 234 240 259 287
196 194 194 195 190 188 191 191 189 182 183 183 182 183 183 182 181 184 177 177 176 172 168 167 151 145 146 156 137 118 333 324 301 250 238 231 238 238 236 238 240 249 266
201 198 197 196 194 192 188 182 174 169 168 181 189 190 189 187 185 185 183 178 178 178 183 180 171 162 164 182 169 153 162 229 283 303 262 242 238 236 240 240 244 248 256
207 202 200 197 195 193 186 185 185 188 193 195 190 189 186 188 188 188 185 182 181 183 183 184 180 172 160 174 180 162 154 153 165 294 304 280 251 240 237 233 236 243 250
208 203 202 198 197 194 191 190 191 198 198 183 177 181 186 190 191 190 187 185 185 187 186 183 180 180 176 174 172 160 144 115 148 177 268 298 302 261 235 225 232 240 249
210 205 201 200 200 196 194 193 195 198 193 181 184 188 190 192 193 193 190 190 189 189 188 188 186 185 188 181 179 172 167 170 183 180 218 252 270 283 268 240 231 238 249
Height
1473 1477 1481 1485 1489 1493 1496 1499 1501 1504 1506 1509 1511 1513 1514 1516 1517 1519 1520 1521 1523 1524 1525 1526 1527 1527 1528 1529 1529 1530 1530 1531 1531 1531 1532 1532 1532 1532 1532 1532 1532 1532 1532
1470 1475 1480 1484 1488 1492 1495 1498 1501 1504 1506 1508 1510 1512 1514 1516 1517 1519 1520 1522 1523 1524 1525 1526 1527 1528 1528 1529 1530 1531 1531 1532 1532 1532 1532 1533 1533 1533 1533 1533 1533 1533 1533
1468 1473 1478 1483 1487 1491 1495 1498 1500 1503 1505 1508 1510 1512 1514 1516 1518 1519 1520 1522 1523 1524 1525 1526 1528 1528 1529 1530 1531 1532 1532 1532 1533 1533 1533 1534 1534 1535 1535 1535 1535 1535 1535
1467 1472 1476 1482 1486 1491 1494 1497 1500 1503 1505 1507 1510 1512 1514 1516 1518 1519 1521 1522 1523 1525 1526 1527 1528 1529 1530 1531 1532 1532 1533 1533 1534 1534 1535 1535 1535 1536 1536 1536 1536 1536 1536
1467 1471 1476 1481 1485 1490 1493 1497 1499 1502 1505 1507 1509 1512 1514 1516 1518 1520 1521 1522 1524 1525 1526 1527 1529 1530 1531 1532 1533 1533 1534 1534 1535 1535 1536 1536 1537 1538 1537 1537 1537 1537 1537
1466 1471 1475 1480 1485 1489 1493 1496 1499 1502 1504 1507 1509 1512 1514 1516 1518 1520 1521 1522 1524 1525 1527 1528 1529 1531 1532 1533 1533 1534 1535 1535 1536 1536 1537 1538 1538 1539 1539 1539 1539 1539 1538
1466 1470 1475 1479 1484 1488 1492 1495 1498 1501 1504 1506 1509 1511 1514 1516 1518 1519 1521 1523 1524 1526 1527 1529 1530 1531 1533 1534 1534 1535 1536 1537 1537 1538 1538 1539 1540 1540 1540 1540 1540 1540 1539
1466 1470 1474 1479 1483 1487 1491 1494 1497 1500 1503 1506 1509 1511 1514 1516 1518 1519 1521 1523 1525 1526 1528 1529 1531 1532 1533 1534 1535 1536 1537 1538 1539 1539 1540 1540 1541 1541 1541 1541 1541 1541 1540
1466 1470 1474 1478 1483 1486 1490 1493 1497 1500 1502 1505 1508 1511 1513 1515 1517 1520 1522 1523 1525 1527 1528 1530 1531 1533 1534 1535 1536 1537 1538 1539 1540 1540 1541 1542 1542 1542 1542 1542 1542 1542 1541
1466 1470 1473 1477 1481 1485 1489 1492 1496 1499 1502 1505 1508 1510 1513 1515 1517 1520 1522 1524 1526 1527 1529 1530 1532 1533 1535 1536 1537 1538 1539 1540 1541 1542 1542 1543 1544 1544 1543 1543 1543 1542 1542
1465 1468 1472 1476 1479 1483 1487 1491 1494 1498 1501 1504 1507 1509 1512 1514 1517 1519 1522 1524 1526 1528 1529 1531 1532 1534 1535 1537 1538 1539 1540 1541 1542 1543 1544 1544 1545 1545 1544 1544 1544 1543 1543
1461 1465 1469 1473 1477 1481 1485 1489 1493 1496 1499 1503 1505 1508 1511 1513 1516 1519 1521 1524 1526 1528 1530 1531 1533 1534 1536 1537 1539 1540 1541 1542 1543 1544 1544 1545 1546 1546 1545 1545 1545 1544 1544
1456 1461 1466 1470 1475 1478 1482 1486 1490 1494 1497 1501 1504 1507 1510 1513 1515 1518 1521 1523 1525 1527 1529 1531 1533 1534 1536 1538 1540 1541 1542 1543 1544 1544 1545 1546 1546 1546 1546 1546 1545 1545 1544
1455 1458 1462 1467 1471 1475 1479 1484 1487 1491 1495 1498 1502 1505 1508 1511 1514 1517 1520 1523 1525 1527 1529 1531 1533 1535 1537 1539 1540 1541 1542 1543 1544 1545 1545 1546 1547 1547 1547 1546 1546 1545 1545
1452 1455 1459 1463 1468 1472 1477 1481 1485 1489 1492 1496 1500 1503 1506 1510 1513 1516 1519 1522 1524 1527 1529 1531 1533 1535 1537 1539 1540 1542 1543 1544 1544 1545 1546 1546 1547 1547 1547 1547 1546 1546 1545
1448 1452 1456 1460 1465 1469 1474 1478 1482 1486 1490 1494 1498 1501 1505 1508 1512 1515 1518 1521 1524 1526 1529 1531 1533 1535 1537 1539 1540 1542 1543 1544 1544 1545 1546 1546 1546 1547 1547 1547 1546 1546 1545
1444 1448 1452 1457 1461 1466 1470 1475 1480 1483 1488 1492 1495 1499 1503 1507 1510 1513 1517 1520 1523 1525 1528 1530 1533 1535 1537 1539 1540 1541 1542 1543 1544 1545 1545 1546 1546 1546 1546 1546 1546 1545 1545
1440 1445 1449 1454 1457 1462 1467 1472 1476 1481 1485 1489 1493 1497 1501 1505 1508 1512 1515 1518 1522 1524 1527 1529 1532 1534 1536 1538 1539 1541 1542 1543 1543 1544 1545 1545 1545 1545 1545 1545 1545 1545 1544
1435 1440 1444 1449 1453 1458 1464 1469 1473 1478 1482 1486 1490 1494 1498 1502 1506 1510 1513 1517 1520 1523 1526 1528 1531 1533 1535 1537 1538 1540 1541 1542 1542 1543 1543 1544 1544 1544 1544 1544 1544 1544 1543
1431 1436 1440 1445 1450 1455 1460 1465 1470 1474 1479 1483 1487 1491 1495 1499 1503 1507 1511 1514 1518 1521 1524 1526 1529 1532 1534 1536 1537 1538 1539 1540 1541 1541 1542 1542 1543 1543 1543 1543 1542 1542 1541
1426 1431 1434 1440 1445 1450 1455 1459 1464 1468 1473 1478 1483 1487 1492 1496 1500 1504 1508 1511 1515 1518 1521 1524 1527 1530 1532 1534 1536 1537 1538 1538 1539 1539 1540 1540 1541 1541 1541 1541 1540 1540 1539
1419 1424 1429 1434 1439 1443 1448 1453 1459 1464 1469 1474 1479 1483 1488 1492 1496 1500 1504 1508 1511 1515 1518 1521 1524 1527 1529 1532 1533 1535 1536 1537 1536 1537 1537 1538 1538 1539 1539 1538 1538 1537 1537
1413 1417 1422 1427 1432 1437 1443 1449 1455 1461 1466 1470 1473 1478 1482 1487 1492 1496 1500 1504 1508 1511 1515 1518 1521 1524 1526 1529 1531 1533 1534 1533 1534 1535 1535 1535 1536 1536 1536 1536 1535 1535 1534
1406 1411 1416 1421 1426 1431 1437 1443 1447 1451 1455 1460 1465 1472 1477 1482 1487 1492 1496 1500 1504 1508 1511 1515 1518 1521 1524 1526 1528 1530 1532 1532 1532 1532 1533 1533 1533 1533 1533 1533 1532 1532 1531
1401 1405 1410 1415 1420 1425 1431 1436 1441 1446 1451 1456 1462 1467 1473 1477 1482 1487 1491 1496 1500 1503 1507 1511 1514 1517 1520 1522 1524 1526 1528 1529 1530 1531 1530 1530 1531 1531 1530 1530 1529 1528 1527
1395 1399 1403 1408 1413 1418 1424 1429 1434 1439 1445 1450 1455 1461 1466 1471 1476 1481 1486 1490 1495 1499 1502 1506 1510 1513 1516 1519 1521 1523 1524 1526 1527 1528 1528 1527 1527 1527 1527 1526 1526 1525 1524